User: anonymous   Login
Location: Unspecified
(0.0000°N, 0.0000°E)
Time: 08:06:14
(UTC+00:00)
Language:

OPTUS D2 - Orbit

View from above orbital plane
View from above orbital plane
View from above satellite
View from above satellite

Ground track
Ground track

The orbit data is extracted from the following two-line orbital elements,

1 32252U 07044A   17017.63014031 -.00000194  00000-0  00000+0 0  9997
2 32252   0.0488 256.5290 0003818  49.6566 189.8894  1.00271752 33975
Epoch (UTC): 17 January 2017 15:07:24
Eccentricity: 0.0003818
inclination: 0.0488°
perigee height: 35770 km
apogee height: 35802 km
right ascension of ascending node: 256.5290°
argument of perigee: 49.6566°
revolutions per day: 1.00271752
mean anomaly at epoch: 189.8894°
orbit number at epoch: 3397

The dashed part of the orbit path shows where the satellite is in the earth's shadow,  

DLR